Year,Month,Day,Hour,Minute,Value (Times are PST for temperature in C)
2015,07,29,00,00,15.40
2015,07,29,00,01,15.50
2015,07,29,00,02,15.40
2015,07,29,00,03,15.50
2015,07,29,00,04,15.40
2015,07,29,00,05,15.40
2015,07,29,00,06,15.40
2015,07,29,00,07,15.40
2015,07,29,00,08,15.40
2015,07,29,00,09,15.40
2015,07,29,00,10,15.30
2015,07,29,00,11,15.30
2015,07,29,00,12,15.30
2015,07,29,00,13,15.30
2015,07,29,00,14,15.30
2015,07,29,00,15,15.30
2015,07,29,00,16,15.30
2015,07,29,00,17,15.20
2015,07,29,00,18,15.20
2015,07,29,00,19,15.20
2015,07,29,00,20,15.20
2015,07,29,00,21,15.20
2015,07,29,00,22,15.10
2015,07,29,00,23,15.10
2015,07,29,00,24,15.10
2015,07,29,00,25,15.10
2015,07,29,00,26,15.10
2015,07,29,00,27,15.10
2015,07,29,00,28,15.10
2015,07,29,00,29,15.10
2015,07,29,00,30,15.10
2015,07,29,00,31,15.10
2015,07,29,00,32,15.00
2015,07,29,00,33,15.00
2015,07,29,00,34,15.00
2015,07,29,00,35,15.00
2015,07,29,00,36,15.00
2015,07,29,00,37,15.00
2015,07,29,00,38,14.90
2015,07,29,00,39,14.90
2015,07,29,00,40,14.90
2015,07,29,00,41,14.90
2015,07,29,00,42,14.90
2015,07,29,00,43,14.80
2015,07,29,00,44,14.80
2015,07,29,00,45,14.80
2015,07,29,00,46,14.80
2015,07,29,00,47,14.80
2015,07,29,00,48,14.70
2015,07,29,00,49,14.70
2015,07,29,00,50,14.70
2015,07,29,00,51,14.70
2015,07,29,00,52,14.70
2015,07,29,00,53,14.60
2015,07,29,00,54,14.60
2015,07,29,00,55,14.60
2015,07,29,00,56,14.60
2015,07,29,00,57,14.60
2015,07,29,00,58,14.60
2015,07,29,00,59,14.60
2015,07,29,01,00,14.50
2015,07,29,01,01,14.50
2015,07,29,01,02,14.50
2015,07,29,01,03,14.50
2015,07,29,01,04,14.40
2015,07,29,01,05,14.40
2015,07,29,01,06,14.40
2015,07,29,01,07,14.40
2015,07,29,01,08,14.30
2015,07,29,01,09,14.30
2015,07,29,01,10,14.30
2015,07,29,01,11,14.30
2015,07,29,01,12,14.20
2015,07,29,01,13,14.20
2015,07,29,01,14,14.20
2015,07,29,01,15,14.10
2015,07,29,01,16,14.10
2015,07,29,01,17,14.00
2015,07,29,01,18,14.00
2015,07,29,01,19,14.00
2015,07,29,01,20,13.90
2015,07,29,01,21,13.90
2015,07,29,01,22,13.90
2015,07,29,01,23,13.90
2015,07,29,01,24,13.90
2015,07,29,01,25,13.90
2015,07,29,01,26,13.90
2015,07,29,01,27,13.90
2015,07,29,01,28,13.90
2015,07,29,01,29,13.90
2015,07,29,01,30,13.90
2015,07,29,01,31,13.90
2015,07,29,01,32,13.90
2015,07,29,01,33,13.90
2015,07,29,01,34,13.90
2015,07,29,01,35,13.90
2015,07,29,01,36,13.90
2015,07,29,01,37,13.90
2015,07,29,01,38,13.90
2015,07,29,01,39,13.90
2015,07,29,01,40,13.90
2015,07,29,01,41,13.90
2015,07,29,01,42,13.90
2015,07,29,01,43,13.90
2015,07,29,01,44,13.90
2015,07,29,01,45,13.90
2015,07,29,01,46,13.90
2015,07,29,01,47,13.90
2015,07,29,01,48,13.90
2015,07,29,01,49,13.90
2015,07,29,01,50,13.90
2015,07,29,01,51,13.80
2015,07,29,01,52,13.80
2015,07,29,01,53,13.80
2015,07,29,01,54,13.80
2015,07,29,01,55,13.80
2015,07,29,01,56,13.80
2015,07,29,01,57,13.80
2015,07,29,01,58,13.80
2015,07,29,01,59,13.70
2015,07,29,02,00,13.70
2015,07,29,02,01,13.70
2015,07,29,02,02,13.70
2015,07,29,02,03,13.70
2015,07,29,02,04,13.70
2015,07,29,02,05,13.70
2015,07,29,02,06,13.70
2015,07,29,02,07,13.60
2015,07,29,02,08,13.60
2015,07,29,02,09,13.60
2015,07,29,02,10,13.60
2015,07,29,02,11,13.50
2015,07,29,02,12,13.50
2015,07,29,02,13,13.50
2015,07,29,02,14,13.40
2015,07,29,02,15,13.40
2015,07,29,02,16,13.40
2015,07,29,02,17,13.40
2015,07,29,02,18,13.40
2015,07,29,02,19,13.30
2015,07,29,02,20,13.30
2015,07,29,02,21,13.30
2015,07,29,02,22,13.30
2015,07,29,02,23,13.30
2015,07,29,02,24,13.20
2015,07,29,02,25,13.20
2015,07,29,02,26,13.20
2015,07,29,02,27,13.20
2015,07,29,02,28,13.10
2015,07,29,02,29,13.10
2015,07,29,02,30,13.10
2015,07,29,02,31,13.00
2015,07,29,02,32,13.00
2015,07,29,02,33,13.00
2015,07,29,02,34,13.00
2015,07,29,02,35,12.90
2015,07,29,02,36,12.90
2015,07,29,02,37,12.90
2015,07,29,02,38,12.90
2015,07,29,02,39,12.90
2015,07,29,02,40,12.90
2015,07,29,02,41,12.90
2015,07,29,02,42,12.90
2015,07,29,02,43,12.90
2015,07,29,02,44,12.90
2015,07,29,02,45,12.90
2015,07,29,02,46,12.90
2015,07,29,02,47,12.90
2015,07,29,02,48,12.80
2015,07,29,02,49,12.80
2015,07,29,02,50,12.80
2015,07,29,02,51,12.80
2015,07,29,02,52,12.80
2015,07,29,02,53,12.80
2015,07,29,02,54,12.80
2015,07,29,02,55,12.80
2015,07,29,02,56,12.80
2015,07,29,02,57,12.80
2015,07,29,02,58,12.80
2015,07,29,02,59,12.80
2015,07,29,03,00,12.80
2015,07,29,03,01,12.80
2015,07,29,03,02,12.80
2015,07,29,03,03,12.80
2015,07,29,03,04,12.90
2015,07,29,03,05,12.90
2015,07,29,03,06,12.90
2015,07,29,03,07,12.90
2015,07,29,03,08,12.90
2015,07,29,03,09,12.90
2015,07,29,03,10,12.90
2015,07,29,03,11,12.80
2015,07,29,03,12,12.80
2015,07,29,03,13,12.80
2015,07,29,03,14,12.80
2015,07,29,03,15,12.80
2015,07,29,03,16,12.80
2015,07,29,03,17,12.70
2015,07,29,03,18,12.70
2015,07,29,03,19,12.70
2015,07,29,03,20,12.70
2015,07,29,03,21,12.70
2015,07,29,03,22,12.70
2015,07,29,03,23,12.60
2015,07,29,03,24,12.60
2015,07,29,03,25,12.60
2015,07,29,03,26,12.60
2015,07,29,03,27,12.60
2015,07,29,03,28,12.60
2015,07,29,03,29,12.50
2015,07,29,03,30,12.50
2015,07,29,03,31,12.50
2015,07,29,03,32,12.50
2015,07,29,03,33,12.50
2015,07,29,03,34,12.50
2015,07,29,03,35,12.40
2015,07,29,03,36,12.40
2015,07,29,03,37,12.40
2015,07,29,03,38,12.40
2015,07,29,03,39,12.40
2015,07,29,03,40,12.40
2015,07,29,03,41,12.40
2015,07,29,03,42,12.40
2015,07,29,03,43,12.40
2015,07,29,03,44,12.40
2015,07,29,03,45,12.40
2015,07,29,03,46,12.40
2015,07,29,03,47,12.40
2015,07,29,03,48,12.40
2015,07,29,03,49,12.40
2015,07,29,03,50,12.40
2015,07,29,03,51,12.40
2015,07,29,03,52,12.40
2015,07,29,03,53,12.40
2015,07,29,03,54,12.40
2015,07,29,03,55,12.40
2015,07,29,03,56,12.40
2015,07,29,03,57,12.40
2015,07,29,03,58,12.40
2015,07,29,03,59,12.40
2015,07,29,04,00,12.40
2015,07,29,04,01,12.40
2015,07,29,04,02,12.40
2015,07,29,04,03,12.30
2015,07,29,04,04,12.40
2015,07,29,04,05,12.30
2015,07,29,04,06,12.30
2015,07,29,04,07,12.30
2015,07,29,04,08,12.30
2015,07,29,04,09,12.30
2015,07,29,04,10,12.30
2015,07,29,04,11,12.30
2015,07,29,04,12,12.30
2015,07,29,04,13,12.30
2015,07,29,04,14,12.40
2015,07,29,04,15,12.40
2015,07,29,04,16,12.40
2015,07,29,04,17,12.40
2015,07,29,04,18,12.40
2015,07,29,04,19,12.40
2015,07,29,04,20,12.40
2015,07,29,04,21,12.40
2015,07,29,04,22,12.40
2015,07,29,04,23,12.40
2015,07,29,04,24,12.40
2015,07,29,04,25,12.40
2015,07,29,04,26,12.30
2015,07,29,04,27,12.30
2015,07,29,04,28,12.20
2015,07,29,04,29,12.20
2015,07,29,04,30,12.10
2015,07,29,04,31,12.10
2015,07,29,04,32,12.10
2015,07,29,04,33,12.10
2015,07,29,04,34,12.00
2015,07,29,04,35,12.00
2015,07,29,04,36,12.00
2015,07,29,04,37,12.00
2015,07,29,04,38,11.90
2015,07,29,04,39,11.90
2015,07,29,04,40,11.90
2015,07,29,04,41,11.90
2015,07,29,04,42,11.90
2015,07,29,04,43,11.90
2015,07,29,04,44,11.90
2015,07,29,04,45,11.90
2015,07,29,04,46,11.90
2015,07,29,04,47,11.90
2015,07,29,04,48,11.90
2015,07,29,04,49,11.90
2015,07,29,04,50,11.90
2015,07,29,04,51,11.90
2015,07,29,04,52,11.90
2015,07,29,04,53,11.90
2015,07,29,04,54,11.90
2015,07,29,04,55,11.90
2015,07,29,04,56,11.90
2015,07,29,04,57,11.90
2015,07,29,04,58,11.90
2015,07,29,04,59,11.90
2015,07,29,05,00,12.00
2015,07,29,05,01,12.00
2015,07,29,05,02,12.00
2015,07,29,05,03,12.00
2015,07,29,05,04,12.00
2015,07,29,05,05,12.00
2015,07,29,05,06,12.00
2015,07,29,05,07,12.00
2015,07,29,05,08,12.00
2015,07,29,05,09,11.90
2015,07,29,05,10,11.90
2015,07,29,05,11,11.90
2015,07,29,05,12,11.90
2015,07,29,05,13,11.90
2015,07,29,05,14,11.90
2015,07,29,05,15,11.90
2015,07,29,05,16,11.90
2015,07,29,05,17,11.90
2015,07,29,05,18,11.90
2015,07,29,05,19,11.90
2015,07,29,05,20,11.80
2015,07,29,05,21,11.80
2015,07,29,05,22,11.80
2015,07,29,05,23,11.80
2015,07,29,05,24,11.80
2015,07,29,05,25,11.80
2015,07,29,05,26,11.70
2015,07,29,05,27,11.70
2015,07,29,05,28,11.70
2015,07,29,05,29,11.70
2015,07,29,05,30,11.70
2015,07,29,05,31,11.70
2015,07,29,05,32,11.70
2015,07,29,05,33,11.70
2015,07,29,05,34,11.70
2015,07,29,05,35,11.70
2015,07,29,05,36,11.70
2015,07,29,05,37,11.70
2015,07,29,05,38,11.70
2015,07,29,05,39,11.70
2015,07,29,05,40,11.70
2015,07,29,05,41,11.70
2015,07,29,05,42,11.70
2015,07,29,05,43,11.70
2015,07,29,05,44,11.80
2015,07,29,05,45,11.80
2015,07,29,05,46,11.80
2015,07,29,05,47,11.80
2015,07,29,05,48,11.80
2015,07,29,05,49,11.80
2015,07,29,05,50,11.80
2015,07,29,05,51,11.70
2015,07,29,05,52,11.70
2015,07,29,05,53,11.70
2015,07,29,05,54,11.70
2015,07,29,05,55,11.70
2015,07,29,05,56,11.60
2015,07,29,05,57,11.60
2015,07,29,05,58,11.60
2015,07,29,05,59,11.60
2015,07,29,06,00,11.60
2015,07,29,06,01,11.60
2015,07,29,06,02,11.50
2015,07,29,06,03,11.50
2015,07,29,06,04,11.50
2015,07,29,06,05,11.50
2015,07,29,06,06,11.50
2015,07,29,06,07,11.50
2015,07,29,06,08,11.50
2015,07,29,06,09,11.40
2015,07,29,06,10,11.40
2015,07,29,06,11,11.40
2015,07,29,06,12,11.50
2015,07,29,06,13,11.50
2015,07,29,06,14,11.50
2015,07,29,06,15,11.50
2015,07,29,06,16,11.50
2015,07,29,06,17,11.50
2015,07,29,06,18,11.50
2015,07,29,06,19,11.50
2015,07,29,06,20,11.50
2015,07,29,06,21,11.50
2015,07,29,06,22,11.50
2015,07,29,06,23,11.50
2015,07,29,06,24,11.50
2015,07,29,06,25,11.50
2015,07,29,06,26,11.60
2015,07,29,06,27,11.60
2015,07,29,06,28,11.60
2015,07,29,06,29,11.60
2015,07,29,06,30,11.60
2015,07,29,06,31,11.60
2015,07,29,06,32,11.50
2015,07,29,06,33,11.50
2015,07,29,06,34,11.50
2015,07,29,06,35,11.50
2015,07,29,06,36,11.50
2015,07,29,06,37,11.50
2015,07,29,06,38,11.50
2015,07,29,06,39,11.50
2015,07,29,06,40,11.50
2015,07,29,06,41,11.50
2015,07,29,06,42,11.50
2015,07,29,06,43,11.50
2015,07,29,06,44,11.60
2015,07,29,06,45,11.60
2015,07,29,06,46,11.60
2015,07,29,06,47,11.70
2015,07,29,06,48,11.70
2015,07,29,06,49,11.80
2015,07,29,06,50,11.80
2015,07,29,06,51,11.90
2015,07,29,06,52,12.00
2015,07,29,06,53,12.00
2015,07,29,06,54,12.10
2015,07,29,06,55,12.10
2015,07,29,06,56,12.10
2015,07,29,06,57,12.20
2015,07,29,06,58,12.20
2015,07,29,06,59,12.30
2015,07,29,07,00,12.30
2015,07,29,07,01,12.30
2015,07,29,07,02,12.40
2015,07,29,07,03,12.40
2015,07,29,07,04,12.50
2015,07,29,07,05,12.50
2015,07,29,07,06,12.60
2015,07,29,07,07,12.60
2015,07,29,07,08,12.70
2015,07,29,07,09,12.70
2015,07,29,07,10,12.80
2015,07,29,07,11,12.80
2015,07,29,07,12,12.90
2015,07,29,07,13,13.00
2015,07,29,07,14,13.10
2015,07,29,07,15,13.10
2015,07,29,07,16,13.20
2015,07,29,07,17,13.30
2015,07,29,07,18,13.40
2015,07,29,07,19,13.50
2015,07,29,07,20,13.60
2015,07,29,07,21,13.70
2015,07,29,07,22,13.80
2015,07,29,07,23,13.90
2015,07,29,07,24,14.00
2015,07,29,07,25,14.00
2015,07,29,07,26,14.10
2015,07,29,07,27,14.10
2015,07,29,07,28,14.20
2015,07,29,07,29,14.30
2015,07,29,07,30,14.30
2015,07,29,07,31,14.40
2015,07,29,07,32,14.50
2015,07,29,07,33,14.50
2015,07,29,07,34,14.60
2015,07,29,07,35,14.60
2015,07,29,07,36,14.60
2015,07,29,07,37,14.70
2015,07,29,07,38,14.70
2015,07,29,07,39,14.80
2015,07,29,07,40,14.80
2015,07,29,07,41,14.80
2015,07,29,07,42,14.90
2015,07,29,07,43,14.90
2015,07,29,07,44,15.00
2015,07,29,07,45,15.00
2015,07,29,07,46,15.10
2015,07,29,07,47,15.10
2015,07,29,07,48,15.20
2015,07,29,07,49,15.20
2015,07,29,07,50,15.30
2015,07,29,07,51,15.30
2015,07,29,07,52,15.40
2015,07,29,07,53,15.50
2015,07,29,07,54,15.60
2015,07,29,07,55,15.60
2015,07,29,07,56,15.70
2015,07,29,07,57,15.70
2015,07,29,07,58,15.80
2015,07,29,07,59,15.80
2015,07,29,08,00,15.90
2015,07,29,08,01,15.90
2015,07,29,08,02,15.90
2015,07,29,08,03,16.00
2015,07,29,08,04,16.00
2015,07,29,08,05,16.10
2015,07,29,08,06,16.10
2015,07,29,08,07,16.20
2015,07,29,08,08,16.20
2015,07,29,08,09,16.30
2015,07,29,08,10,16.40
2015,07,29,08,11,16.40
2015,07,29,08,12,16.50
2015,07,29,08,13,16.60
2015,07,29,08,14,16.70
2015,07,29,08,15,16.80
2015,07,29,08,16,16.80
2015,07,29,08,17,16.90
2015,07,29,08,18,17.00
2015,07,29,08,19,17.10
2015,07,29,08,20,17.20
2015,07,29,08,21,17.30
2015,07,29,08,22,17.40
2015,07,29,08,23,17.40
2015,07,29,08,24,17.50
2015,07,29,08,25,17.60
2015,07,29,08,26,17.60
2015,07,29,08,27,17.70
2015,07,29,08,28,17.70
2015,07,29,08,29,17.70
2015,07,29,08,30,17.80
2015,07,29,08,31,17.80
2015,07,29,08,32,17.90
2015,07,29,08,33,18.00
2015,07,29,08,34,18.10
2015,07,29,08,35,18.20
2015,07,29,08,36,18.20
2015,07,29,08,37,18.30
2015,07,29,08,38,18.40
2015,07,29,08,39,18.50
2015,07,29,08,40,18.50
2015,07,29,08,41,18.60
2015,07,29,08,42,18.70
2015,07,29,08,43,18.70
2015,07,29,08,44,18.70
2015,07,29,08,45,18.70
2015,07,29,08,46,18.80
2015,07,29,08,47,18.90
2015,07,29,08,48,18.90
2015,07,29,08,49,19.00
2015,07,29,08,50,19.10
2015,07,29,08,51,19.10
2015,07,29,08,52,19.20
2015,07,29,08,53,19.20
2015,07,29,08,54,19.30
2015,07,29,08,55,19.30
2015,07,29,08,56,19.40
2015,07,29,08,57,19.40
2015,07,29,08,58,19.50
2015,07,29,08,59,19.60
2015,07,29,09,00,19.70
2015,07,29,09,01,19.80
2015,07,29,09,02,19.90
2015,07,29,09,03,19.90
2015,07,29,09,04,19.90
2015,07,29,09,05,19.90
2015,07,29,09,06,19.90
2015,07,29,09,07,19.90
2015,07,29,09,08,19.80
2015,07,29,09,09,19.80
2015,07,29,09,10,19.90
2015,07,29,09,11,19.90
2015,07,29,09,12,19.90
2015,07,29,09,13,19.90
2015,07,29,09,14,20.00
2015,07,29,09,15,20.10
2015,07,29,09,16,20.10
2015,07,29,09,17,20.20
2015,07,29,09,18,20.40
2015,07,29,09,19,20.50
2015,07,29,09,20,20.60
2015,07,29,09,21,20.70
2015,07,29,09,22,20.80
2015,07,29,09,23,20.90
2015,07,29,09,24,21.00
2015,07,29,09,25,21.20
2015,07,29,09,26,21.30
2015,07,29,09,27,21.40
2015,07,29,09,28,21.50
2015,07,29,09,29,21.70
2015,07,29,09,30,21.80
2015,07,29,09,31,21.80
2015,07,29,09,32,21.90
2015,07,29,09,33,22.00
2015,07,29,09,34,22.00
2015,07,29,09,35,22.10
2015,07,29,09,36,22.10
2015,07,29,09,37,22.10
2015,07,29,09,38,22.10
2015,07,29,09,39,22.00
2015,07,29,09,40,22.00
2015,07,29,09,41,21.80
2015,07,29,09,42,21.70
2015,07,29,09,43,21.60
2015,07,29,09,44,21.60
2015,07,29,09,45,21.60
2015,07,29,09,46,21.60
2015,07,29,09,47,21.60
2015,07,29,09,48,21.60
2015,07,29,09,49,21.50
2015,07,29,09,50,21.50
2015,07,29,09,51,21.40
2015,07,29,09,52,21.30
2015,07,29,09,53,21.30
2015,07,29,09,54,21.30
2015,07,29,09,55,21.30
2015,07,29,09,56,21.20
2015,07,29,09,57,21.20
2015,07,29,09,58,21.20
2015,07,29,09,59,21.20
2015,07,29,10,00,21.20
2015,07,29,10,01,21.20
2015,07,29,10,02,21.30
2015,07,29,10,03,21.30
2015,07,29,10,04,21.30
2015,07,29,10,05,21.40
2015,07,29,10,06,21.40
2015,07,29,10,07,21.40
2015,07,29,10,08,21.50
2015,07,29,10,09,21.50
2015,07,29,10,10,21.60
2015,07,29,10,11,21.60
2015,07,29,10,12,21.60
2015,07,29,10,13,21.60
2015,07,29,10,14,21.70
2015,07,29,10,15,21.70
2015,07,29,10,16,21.80
2015,07,29,10,17,21.80
2015,07,29,10,18,21.80
2015,07,29,10,19,21.90
2015,07,29,10,20,22.00
2015,07,29,10,21,22.00
2015,07,29,10,22,22.10
2015,07,29,10,23,22.20
2015,07,29,10,24,22.30
2015,07,29,10,25,22.40
2015,07,29,10,26,22.40
2015,07,29,10,27,22.40
2015,07,29,10,28,22.50
2015,07,29,10,29,22.50
2015,07,29,10,30,22.60
2015,07,29,10,31,22.60
2015,07,29,10,32,22.60
2015,07,29,10,33,22.70
2015,07,29,10,34,22.70
2015,07,29,10,35,22.70
2015,07,29,10,36,22.80
2015,07,29,10,37,22.80
2015,07,29,10,38,22.90
2015,07,29,10,39,23.00
2015,07,29,10,40,23.00
2015,07,29,10,41,23.10
2015,07,29,10,42,23.10
2015,07,29,10,43,23.20
2015,07,29,10,44,23.20
2015,07,29,10,45,23.20
2015,07,29,10,46,23.30
2015,07,29,10,47,23.30
2015,07,29,10,48,23.30
2015,07,29,10,49,23.30
2015,07,29,10,50,23.30
2015,07,29,10,51,23.30
2015,07,29,10,52,23.40
2015,07,29,10,53,23.40
2015,07,29,10,54,23.50
2015,07,29,10,55,23.50
2015,07,29,10,56,23.60
2015,07,29,10,57,23.60
2015,07,29,10,58,23.60
2015,07,29,10,59,23.60
2015,07,29,11,00,23.60
2015,07,29,11,01,23.60
2015,07,29,11,02,23.60
2015,07,29,11,03,23.60
2015,07,29,11,04,23.50
2015,07,29,11,05,23.50
2015,07,29,11,06,23.60
2015,07,29,11,07,23.50
2015,07,29,11,08,23.40
2015,07,29,11,09,23.40
2015,07,29,11,10,23.50
2015,07,29,11,11,23.50
2015,07,29,11,12,23.60
2015,07,29,11,13,23.70
2015,07,29,11,14,23.70
2015,07,29,11,15,23.80
2015,07,29,11,16,23.80
2015,07,29,11,17,23.90
2015,07,29,11,18,24.00
2015,07,29,11,19,24.10
2015,07,29,11,20,24.20
2015,07,29,11,21,24.20
2015,07,29,11,22,24.20
2015,07,29,11,23,24.30
2015,07,29,11,24,24.30
2015,07,29,11,25,24.20
2015,07,29,11,26,24.20
2015,07,29,11,27,24.20
2015,07,29,11,28,24.10
2015,07,29,11,29,24.00
2015,07,29,11,30,24.00
2015,07,29,11,31,24.00
2015,07,29,11,32,24.00
2015,07,29,11,33,24.10
2015,07,29,11,34,24.20
2015,07,29,11,35,24.20
2015,07,29,11,36,24.20
2015,07,29,11,37,24.20
2015,07,29,11,38,24.20
2015,07,29,11,39,24.20
2015,07,29,11,40,24.20
2015,07,29,11,41,24.20
2015,07,29,11,42,24.20
2015,07,29,11,43,24.10
2015,07,29,11,44,24.10
2015,07,29,11,45,24.00
2015,07,29,11,46,24.00
2015,07,29,11,47,24.00
2015,07,29,11,48,24.10
2015,07,29,11,49,24.10
2015,07,29,11,50,24.10
2015,07,29,11,51,24.20
2015,07,29,11,52,24.20
2015,07,29,11,53,24.10
2015,07,29,11,54,24.10
2015,07,29,11,55,24.20
2015,07,29,11,56,24.20
2015,07,29,11,57,24.20
2015,07,29,11,58,24.20
2015,07,29,11,59,24.30
2015,07,29,12,00,24.20
2015,07,29,12,01,24.10
2015,07,29,12,02,24.10
2015,07,29,12,03,24.00
2015,07,29,12,04,23.90
2015,07,29,12,05,23.90
2015,07,29,12,06,23.80
2015,07,29,12,07,23.80
2015,07,29,12,08,23.80
2015,07,29,12,09,23.70
2015,07,29,12,10,23.70
2015,07,29,12,11,23.80
2015,07,29,12,12,23.70
2015,07,29,12,13,23.70
2015,07,29,12,14,23.70
2015,07,29,12,15,23.70
2015,07,29,12,16,23.80
2015,07,29,12,17,23.80
2015,07,29,12,18,23.90
2015,07,29,12,19,23.90
2015,07,29,12,20,23.90
2015,07,29,12,21,23.90
2015,07,29,12,22,24.00
2015,07,29,12,23,24.00
2015,07,29,12,24,24.00
2015,07,29,12,25,24.10
2015,07,29,12,26,24.10
2015,07,29,12,27,24.10
2015,07,29,12,28,24.10
2015,07,29,12,29,24.10
2015,07,29,12,30,24.10
2015,07,29,12,31,24.20
2015,07,29,12,32,24.20
2015,07,29,12,33,24.20
2015,07,29,12,34,24.20
2015,07,29,12,35,24.20
2015,07,29,12,36,24.20
2015,07,29,12,37,24.30
2015,07,29,12,38,24.30
2015,07,29,12,39,24.30
2015,07,29,12,40,24.20
2015,07,29,12,41,24.20
2015,07,29,12,42,24.30
2015,07,29,12,43,24.30
2015,07,29,12,44,24.40
2015,07,29,12,45,24.40
2015,07,29,12,46,24.40
2015,07,29,12,47,24.40
2015,07,29,12,48,24.40
2015,07,29,12,49,24.40
2015,07,29,12,50,24.30
2015,07,29,12,51,24.30
2015,07,29,12,52,24.40
2015,07,29,12,53,24.50
2015,07,29,12,54,24.60
2015,07,29,12,55,24.70
2015,07,29,12,56,24.80
2015,07,29,12,57,24.90
2015,07,29,12,58,24.90
2015,07,29,12,59,24.90
2015,07,29,13,00,24.90
2015,07,29,13,01,24.90
2015,07,29,13,02,24.90
2015,07,29,13,03,24.90
2015,07,29,13,04,24.90
2015,07,29,13,05,25.00
2015,07,29,13,06,25.10
2015,07,29,13,07,25.20
2015,07,29,13,08,25.20
2015,07,29,13,09,25.20
2015,07,29,13,10,25.20
2015,07,29,13,11,25.10
2015,07,29,13,12,25.00
2015,07,29,13,13,24.90
2015,07,29,13,14,24.90
2015,07,29,13,15,24.90
2015,07,29,13,16,24.90
2015,07,29,13,17,24.90
2015,07,29,13,18,24.90
2015,07,29,13,19,24.90
2015,07,29,13,20,24.90
2015,07,29,13,21,25.00
2015,07,29,13,22,25.10
2015,07,29,13,23,25.20
2015,07,29,13,24,25.30
2015,07,29,13,25,25.30
2015,07,29,13,26,25.40
2015,07,29,13,27,25.40
2015,07,29,13,28,25.40
2015,07,29,13,29,25.50
2015,07,29,13,30,25.40
2015,07,29,13,31,25.50
2015,07,29,13,32,25.50
2015,07,29,13,33,25.50
2015,07,29,13,34,25.50
2015,07,29,13,35,25.60
2015,07,29,13,36,25.60
2015,07,29,13,37,25.60
2015,07,29,13,38,25.60
2015,07,29,13,39,25.60
2015,07,29,13,40,25.70
2015,07,29,13,41,25.70
2015,07,29,13,42,25.60
2015,07,29,13,43,25.60
2015,07,29,13,44,25.60
2015,07,29,13,45,25.60
2015,07,29,13,46,25.60
2015,07,29,13,47,25.60
2015,07,29,13,48,25.60
2015,07,29,13,49,25.60
2015,07,29,13,50,25.60
2015,07,29,13,51,25.70
2015,07,29,13,52,25.70
2015,07,29,13,53,25.70
2015,07,29,13,54,25.70
2015,07,29,13,55,25.60
2015,07,29,13,56,25.60
2015,07,29,13,57,25.60
2015,07,29,13,58,25.60
2015,07,29,13,59,25.60
2015,07,29,14,00,25.70
2015,07,29,14,01,25.70
2015,07,29,14,02,25.70
2015,07,29,14,03,25.70
2015,07,29,14,04,25.70
2015,07,29,14,05,25.70
2015,07,29,14,06,25.70
2015,07,29,14,07,25.70
2015,07,29,14,08,25.60
2015,07,29,14,09,25.60
2015,07,29,14,10,25.60
2015,07,29,14,11,25.70
2015,07,29,14,12,25.80
2015,07,29,14,13,25.80
2015,07,29,14,14,25.90
2015,07,29,14,15,25.90
2015,07,29,14,16,26.00
2015,07,29,14,17,26.10
2015,07,29,14,18,26.20
2015,07,29,14,19,26.30
2015,07,29,14,20,26.40
2015,07,29,14,21,26.50
2015,07,29,14,22,26.60
2015,07,29,14,23,26.60
2015,07,29,14,24,26.70
2015,07,29,14,25,26.80
2015,07,29,14,26,26.90
2015,07,29,14,27,26.80
2015,07,29,14,28,26.80
2015,07,29,14,29,26.80
2015,07,29,14,30,26.80
2015,07,29,14,31,26.80
2015,07,29,14,32,26.80
2015,07,29,14,33,26.80
2015,07,29,14,34,26.80
2015,07,29,14,35,26.80
2015,07,29,14,36,26.80
2015,07,29,14,37,26.90
2015,07,29,14,38,27.10
2015,07,29,14,39,27.20
2015,07,29,14,40,27.20
2015,07,29,14,41,27.20
2015,07,29,14,42,27.30
2015,07,29,14,43,27.30
2015,07,29,14,44,27.40
2015,07,29,14,45,27.40
2015,07,29,14,46,27.50
2015,07,29,14,47,27.50
2015,07,29,14,48,27.60
2015,07,29,14,49,27.60
2015,07,29,14,50,27.60
2015,07,29,14,51,27.70
2015,07,29,14,52,27.70
2015,07,29,14,53,27.80
2015,07,29,14,54,27.80
2015,07,29,14,55,27.80
2015,07,29,14,56,27.70
2015,07,29,14,57,27.70
2015,07,29,14,58,27.60
2015,07,29,14,59,27.50
2015,07,29,15,00,27.40
2015,07,29,15,01,27.50
2015,07,29,15,02,27.60
2015,07,29,15,03,27.60
2015,07,29,15,04,27.70
2015,07,29,15,05,27.70
2015,07,29,15,06,27.70
2015,07,29,15,07,27.70
2015,07,29,15,08,27.70
2015,07,29,15,09,27.80
2015,07,29,15,10,27.80
2015,07,29,15,11,27.80
2015,07,29,15,12,27.90
2015,07,29,15,13,27.90
2015,07,29,15,14,27.80
2015,07,29,15,15,27.70
2015,07,29,15,16,27.70
2015,07,29,15,17,27.60
2015,07,29,15,18,27.60
2015,07,29,15,19,27.60
2015,07,29,15,20,27.60
2015,07,29,15,21,27.60
2015,07,29,15,22,27.80
2015,07,29,15,23,27.80
2015,07,29,15,24,27.80
2015,07,29,15,25,27.80
2015,07,29,15,26,27.70
2015,07,29,15,27,27.60
2015,07,29,15,28,27.60
2015,07,29,15,29,27.60
2015,07,29,15,30,27.60
2015,07,29,15,31,27.60
2015,07,29,15,32,27.70
2015,07,29,15,33,27.80
2015,07,29,15,34,27.90
2015,07,29,15,35,27.80
2015,07,29,15,36,27.90
2015,07,29,15,37,27.90
2015,07,29,15,38,28.10
2015,07,29,15,39,28.10
2015,07,29,15,40,28.20
2015,07,29,15,41,28.30
2015,07,29,15,42,28.30
2015,07,29,15,43,28.40
2015,07,29,15,44,28.40
2015,07,29,15,45,28.40
2015,07,29,15,46,28.40
2015,07,29,15,47,28.40
2015,07,29,15,48,28.40
2015,07,29,15,49,28.30
2015,07,29,15,50,28.30
2015,07,29,15,51,28.30
2015,07,29,15,52,28.30
2015,07,29,15,53,28.40
2015,07,29,15,54,28.40
2015,07,29,15,55,28.50
2015,07,29,15,56,28.50
2015,07,29,15,57,28.30
2015,07,29,15,58,28.20
2015,07,29,15,59,28.00
2015,07,29,16,00,27.90
2015,07,29,16,01,27.90
2015,07,29,16,02,27.90
2015,07,29,16,03,27.90
2015,07,29,16,04,27.80
2015,07,29,16,05,27.80
2015,07,29,16,06,27.80
2015,07,29,16,07,27.80
2015,07,29,16,08,27.80
2015,07,29,16,09,27.80
2015,07,29,16,10,27.60
2015,07,29,16,11,27.60
2015,07,29,16,12,27.60
2015,07,29,16,13,27.60
2015,07,29,16,14,27.60
2015,07,29,16,15,27.60
2015,07,29,16,16,27.70
2015,07,29,16,17,27.80
2015,07,29,16,18,28.00
2015,07,29,16,19,28.10
2015,07,29,16,20,28.20
2015,07,29,16,21,28.20
2015,07,29,16,22,28.20
2015,07,29,16,23,28.20
2015,07,29,16,24,28.10
2015,07,29,16,25,28.00
2015,07,29,16,26,28.00
2015,07,29,16,27,28.10
2015,07,29,16,28,28.20
2015,07,29,16,29,28.20
2015,07,29,16,30,28.30
2015,07,29,16,31,28.30
2015,07,29,16,32,28.30
2015,07,29,16,33,28.20
2015,07,29,16,34,28.10
2015,07,29,16,35,28.10
2015,07,29,16,36,28.00
2015,07,29,16,37,27.90
2015,07,29,16,38,27.90
2015,07,29,16,39,27.80
2015,07,29,16,40,27.70
2015,07,29,16,41,27.70
2015,07,29,16,42,27.70
2015,07,29,16,43,27.70
2015,07,29,16,44,27.70
2015,07,29,16,45,27.70
2015,07,29,16,46,27.70
2015,07,29,16,47,27.80
2015,07,29,16,48,27.80
2015,07,29,16,49,27.80
2015,07,29,16,50,27.80
2015,07,29,16,51,27.80
2015,07,29,16,52,27.80
2015,07,29,16,53,27.80
2015,07,29,16,54,27.80
2015,07,29,16,55,27.80
2015,07,29,16,56,27.90
2015,07,29,16,57,27.90
2015,07,29,16,58,28.00
2015,07,29,16,59,28.00
2015,07,29,17,00,27.90
2015,07,29,17,01,27.90
2015,07,29,17,02,27.80
2015,07,29,17,03,27.80
2015,07,29,17,04,27.80
2015,07,29,17,05,27.80
2015,07,29,17,06,27.80
2015,07,29,17,07,27.80
2015,07,29,17,08,27.80
2015,07,29,17,09,27.90
2015,07,29,17,10,27.90
2015,07,29,17,11,27.90
2015,07,29,17,12,27.90
2015,07,29,17,13,27.90
2015,07,29,17,14,27.90
2015,07,29,17,15,27.80
2015,07,29,17,16,27.80
2015,07,29,17,17,27.80
2015,07,29,17,18,27.90
2015,07,29,17,19,27.90